FW8074 Weather Reports


Display with metric or nautical units.
time (UTC)temp
F
wind
direction
speed
MPH
gust
MPH
rain 1hr
in
rain 24hr
in
rain mn
in
humidity
%
barometer
mb
20260503233058 66 0 0.0 0.0 0.00 0.00 0.00 51 1013.0
20260503231552 67 231 0.0 2.0 0.00 0.00 0.00 49 1013.0
20260503230057 67 0 0.0 2.0 0.00 0.00 0.00 46 1013.0
20260503224553 68 313 2.0 4.0 0.00 0.00 0.00 44 1013.0
20260503223055 68 0 1.0 5.0 0.00 0.00 0.00 44 1013.1
20260503221554 69 326 1.0 4.0 0.00 0.00 0.00 42 1013.0
20260503220058 69 194 2.0 7.0 0.00 0.00 0.00 42 1013.0
20260503214556 69 262 2.0 4.0 0.00 0.00 0.00 43 1013.1
20260503213102 69 277 1.0 4.0 0.00 0.00 0.00 44 1013.0
20260503211553 69 269 2.0 7.0 0.00 0.00 0.00 41 1013.1
20260503210054 70 257 1.0 4.0 0.00 0.00 0.00 42 1013.1
20260503204559 69 244 3.0 6.0 0.00 0.00 0.00 42 1013.2
20260503203108 69 276 2.0 7.0 0.00 0.00 0.00 40 1013.3
20260503201559 69 350 1.0 7.0 0.00 0.00 0.00 40 1013.4
20260503200101 69 281 2.0 5.0 0.00 0.00 0.00 42 1013.7
20260503194603 69 346 2.0 8.0 0.00 0.00 0.00 44 1014.1
20260503193109 68 296 3.0 6.0 0.00 0.00 0.00 46 1014.2
20260503191552 68 318 5.0 9.0 0.00 0.00 0.00 44 1014.5
20260503190059 68 267 2.0 6.0 0.00 0.00 0.00 43 1014.5
20260503184621 67 236 2.0 6.0 0.00 0.00 0.00 44 1015.1
20260503183101 67 267 2.0 6.0 0.00 0.00 0.00 44 1015.1
20260503181602 66 103 1.0 8.0 0.00 0.00 0.00 45 1015.3
20260503180056 66 268 1.0 9.0 0.00 0.00 0.00 45 1015.5
20260503174556 65 0 2.0 7.0 0.00 0.00 0.00 46 1015.7
20260503173056 64 13 2.0 6.0 0.00 0.00 0.00 50 1015.8
20260503171613 64 263 2.0 6.0 0.00 0.00 0.00 49 1016.0
20260503170105 63 80 2.0 6.0 0.00 0.00 0.00 50 1016.1
20260503090110 43 0 0.0 1.0 0.00 0.27 0.00 97 1013.8
20260503081557 44 0 0.0 0.0 0.00 0.29 0.00 97 1013.5
20260503080108 44 0 0.0 0.0 0.00 0.29 0.00 97 1013.4
20260503071608 46 0 0.0 0.0 0.00 0.29 0.00 97 1012.9
20260503054600 47 0 0.0 0.0 0.00 0.29 0.00 98 1012.4
20260503053055 48 0 0.0 0.0 0.00 0.29 0.00 98 1012.4
20260503051553 47 0 0.0 0.0 0.00 0.29 0.00 98 1012.3
20260503050053 47 0 0.0 0.0 0.00 0.29 0.00 97 1012.3
20260503044556 48 0 0.0 0.0 0.00 0.29 0.00 97 1012.2
20260503043054 47 0 0.0 0.0 0.00 0.29 0.00 98 1012.0
20260503041554 47 0 0.0 0.0 0.00 0.29 0.00 97 1012.1
20260503040058 47 0 0.0 0.0 0.00 0.29 0.00 97 1012.2
20260503034556 47 0 0.0 0.0 0.00 0.29 0.29 97 1011.7
20260503033055 47 0 0.0 0.0 0.00 0.29 0.29 96 1011.7
20260503031557 48 0 0.0 0.0 0.00 0.29 0.29 96 1011.8
20260503024555 49 0 0.0 0.0 0.00 0.29 0.29 96 1011.2
20260503023107 49 0 0.0 0.0 0.00 0.29 0.29 96 1011.0
20260503021605 50 0 0.0 0.0 0.00 0.29 0.29 96 1010.8
20260503020059 50 0 0.0 0.0 0.00 0.29 0.29 96 1010.8
20260503014554 50 0 0.0 0.0 0.00 0.29 0.29 96 1010.6
20260503013058 51 0 0.0 0.0 0.00 0.29 0.29 96 1010.7
20260503011617 51 0 0.0 1.0 0.00 0.29 0.29 96 1010.5
20260503010056 52 0 0.0 0.0 0.00 0.29 0.29 95 1010.3
20260503004555 52 0 0.0 0.0 0.00 0.29 0.29 94 1009.8
20260503003054 53 0 0.0 0.0 0.00 0.29 0.29 94 1009.7
20260503001555 54 0 0.0 0.0 0.00 0.29 0.29 93 1009.4
20260503000104 55 0 0.0 0.0 0.00 0.29 0.29 93 1009.2
20260502234604 55 0 0.0 0.0 0.00 0.29 0.29 93 1009.1